Owosso, MI

8:08 AM EST on December 07, 2016 (GMT -0500)
Owosso

Weather History for KRNP - January, 2013

Change the Weather History Date:

Wednesday, January 2, 2013

  Actual Average (KFNT) Record (KFNT)
Temperature  
Mean Temperature 23 °F 23 °F  
Max Temperature 27 °F 30 °F 57 °F (2004)
Min Temperature 19 °F 17 °F -12 °F (2001)
Degree Days  
Heating Degree Days 42 42  
Month to date heating degree days 83  
Since 1 July heating degree days 2728  
Cooling Degree Days 0 0  
Month to date cooling degree days 0  
Year to date cooling degree days 0  
Moisture  
Dew Point 15 °F    
Average Humidity 69    
Maximum Humidity 75    
Minimum Humidity 64    
Precipitation  
Precipitation 0.00 in 0.06 in 1.09 in (1951)
Month to date precipitation 0.12  
Year to date precipitation 0.12  
Snow  
Snow 0.00 in 0.40 in 2.30 in ()
Month to date snowfall 0.8  
Since 1 July snowfall 15.5  
Snow Depth -    
Sea Level Pressure  
Sea Level Pressure 30.11 in    
Wind  
Wind Speed 7 mph (WSW)    
Max Wind Speed 13 mph    
Max Gust Speed -    
Visibility 10 miles    
Events Snow    
T = Trace of Precipitation, MM = Missing Value Source: NWS Daily Summary

Daily Weather History Graph

Daily Weather History Graph

Search for Another Location

Airport or City:

Trip Planner

Search our weather history database for the weather conditions in past years. The results will help you decide how hot, cold, wet, or windy it might be!

Date:

Astronomy

Jan. 02, 2013 Rise Set
Actual Time 8:07 AM EST 5:13 PM EST
Civil Twilight 7:35 AM EST 5:45 PM EST
Nautical Twilight 7:00 AM EST 6:21 PM EST
Astronomical Twilight 6:25 AM EST 6:56 PM EST
Moon 10:54 PM EST (1/2) 10:41 AM EST (1/2)
Length of Visible Light 10h 10m
Length of Day
9h 05m
Waning Gibbous, 75% of the Moon is Illuminated
Jan 2
Waning Gibbous
Jan 4
Last Quarter
Jan 11
New
Jan 18
First Quarter
Jan 26
Full

Hourly Weather History & Observations

Time (EST) Temp. Windchill Dew Point Humidity Pressure Visibility Wind Dir Wind Speed Gust Speed Precip Events Conditions
12:15 AM 20.1 °F 9.5 °F 11.3 °F 69% 30.06 in 10.0 mi West 9.2 mph - N/A   Overcast
12:35 AM 19.8 °F 11.9 °F 11.1 °F 69% 30.06 in 10.0 mi WSW 5.8 mph - N/A   Overcast
12:55 AM 19.4 °F 7.9 °F 11.3 °F 71% 30.05 in 10.0 mi West 10.4 mph - N/A   Overcast
1:14 AM 19.8 °F 9.1 °F 11.1 °F 69% 30.05 in 10.0 mi West 9.2 mph - N/A   Overcast
1:35 AM 19.8 °F 8.3 °F 10.9 °F 69% 30.05 in 10.0 mi West 10.4 mph - N/A   Overcast
1:55 AM 19.8 °F 9.9 °F 10.8 °F 68% 30.05 in 10.0 mi West 8.1 mph - N/A   Overcast
2:15 AM 19.8 °F 9.1 °F 10.4 °F 67% 30.06 in 10.0 mi West 9.2 mph - N/A   Overcast
2:35 AM 19.6 °F 8.9 °F 10.4 °F 68% 30.06 in 10.0 mi West 9.2 mph - N/A   Overcast
2:54 AM 19.4 °F 9.5 °F 10.4 °F 68% 30.06 in 10.0 mi West 8.1 mph - N/A   Overcast
3:15 AM 19.2 °F 9.3 °F 10.2 °F 68% 30.07 in 10.0 mi West 8.1 mph - N/A   Overcast
3:35 AM 19.2 °F 9.3 °F 10.4 °F 69% 30.07 in 10.0 mi West 8.1 mph - N/A   Overcast
3:54 AM 19.4 °F 9.5 °F 10.8 °F 69% 30.08 in 10.0 mi West 8.1 mph - N/A   Overcast
4:15 AM 19.0 °F 11.1 °F 10.4 °F 69% 30.09 in 10.0 mi WSW 5.8 mph - N/A   Overcast
4:35 AM 19.4 °F 10.4 °F 10.9 °F 70% 30.08 in 10.0 mi WSW 6.9 mph - N/A   Overcast
4:55 AM 19.8 °F 11.9 °F 11.3 °F 70% 30.08 in 10.0 mi West 5.8 mph - N/A   Overcast
5:15 AM 20.3 °F 9.0 °F 11.7 °F 69% 30.08 in 10.0 mi West 10.4 mph - N/A   Overcast
5:35 AM 20.3 °F 9.8 °F 11.3 °F 68% 30.07 in 10.0 mi West 9.2 mph - N/A   Overcast
5:55 AM 20.7 °F 11.9 °F 11.3 °F 67% 30.07 in 10.0 mi West 6.9 mph - N/A   Overcast
6:15 AM 20.8 °F 12.1 °F 11.5 °F 67% 30.07 in 10.0 mi West 6.9 mph - N/A   Overcast
6:34 AM 21.4 °F 12.8 °F 11.8 °F 67% 30.08 in 10.0 mi WSW 6.9 mph - N/A   Overcast
6:55 AM 21.7 °F 14.3 °F 12.2 °F 67% 30.08 in 10.0 mi WSW 5.8 mph - N/A   Overcast
7:15 AM 22.1 °F 14.7 °F 12.7 °F 67% 30.09 in 10.0 mi West 5.8 mph - N/A   Overcast
7:34 AM 22.8 °F 13.6 °F 13.1 °F 66% 30.09 in 10.0 mi West 8.1 mph - N/A   Overcast
7:55 AM 23.2 °F 13.3 °F 13.5 °F 66% 30.09 in 10.0 mi West 9.2 mph - N/A   Overcast
8:15 AM 23.5 °F 13.7 °F 13.8 °F 66% 30.10 in 10.0 mi West 9.2 mph - N/A   Overcast
8:34 AM 23.7 °F 14.0 °F 14.0 °F 66% 30.10 in 10.0 mi West 9.2 mph - N/A   Overcast
8:55 AM 23.9 °F 13.5 °F 14.0 °F 66% 30.09 in 10.0 mi West 10.4 mph - N/A   Overcast
9:15 AM 23.9 °F 12.9 °F 14.0 °F 66% 30.10 in 10.0 mi West 11.5 mph - N/A   Overcast
9:35 AM 24.3 °F 13.3 °F 14.5 °F 67% 30.11 in 10.0 mi West 11.5 mph - N/A Snow Light Snow
9:55 AM 24.4 °F 14.2 °F 14.7 °F 67% 30.12 in 10.0 mi WNW 10.4 mph - N/A Snow Light Snow
10:15 AM 24.6 °F 13.2 °F 14.9 °F 67% 30.13 in 7.0 mi West 12.7 mph - N/A Snow Light Snow
10:35 AM 24.8 °F 14.6 °F 15.6 °F 68% 30.14 in 5.0 mi West 10.4 mph - N/A Snow Light Snow
10:55 AM 24.8 °F 14.6 °F 15.8 °F 69% 30.14 in 5.0 mi West 10.4 mph - N/A Snow Light Snow
11:14 AM 25.2 °F 17.3 °F 16.3 °F 69% 30.14 in 5.0 mi West 6.9 mph - N/A Snow Light Snow
11:35 AM 25.3 °F 16.0 °F 16.3 °F 69% 30.14 in 10.0 mi West 9.2 mph - N/A Snow Light Snow
11:55 AM 25.5 °F 17.8 °F 16.2 °F 68% 30.14 in 10.0 mi WNW 6.9 mph - N/A Snow Light Snow
12:14 PM 26.2 °F 18.6 °F 16.0 °F 65% 30.13 in 10.0 mi WNW 6.9 mph - N/A Snow Light Snow
12:35 PM 26.1 °F 19.4 °F 16.2 °F 66% 30.13 in 7.0 mi WNW 5.8 mph - N/A Snow Light Snow
12:55 PM 26.2 °F 18.6 °F 15.8 °F 65% 30.12 in 10.0 mi WNW 6.9 mph - N/A Snow Light Snow
1:15 PM 26.4 °F 19.8 °F 16.0 °F 65% 30.12 in 7.0 mi WNW 5.8 mph - N/A Snow Light Snow
1:35 PM 26.6 °F 20.0 °F 16.5 °F 66% 30.12 in 10.0 mi West 5.8 mph - N/A Snow Light Snow
1:55 PM 26.6 °F 19.1 °F 16.7 °F 66% 30.12 in 10.0 mi West 6.9 mph - N/A Snow Light Snow
2:15 PM 27.1 °F 21.8 °F 16.7 °F 65% 30.12 in 10.0 mi West 4.6 mph - N/A   Overcast
2:35 PM 27.5 °F 22.2 °F 16.9 °F 64% 30.11 in 7.0 mi WNW 4.6 mph - N/A Snow Light Snow
2:55 PM 27.5 °F 23.6 °F 17.6 °F 66% 30.11 in 7.0 mi West 3.5 mph - N/A Snow Light Snow
3:15 PM 27.5 °F 22.2 °F 17.6 °F 66% 30.11 in 7.0 mi West 4.6 mph - N/A Snow Light Snow
3:35 PM 27.5 °F 23.6 °F 18.0 °F 67% 30.11 in 5.0 mi West 3.5 mph - N/A Snow Light Snow
3:54 PM 27.5 °F - 18.1 °F 68% 30.12 in 10.0 mi Calm Calm - N/A Snow Light Snow
4:15 PM 27.1 °F - 18.3 °F 69% 30.12 in 10.0 mi Calm Calm - N/A   Overcast
4:35 PM 27.1 °F - 17.8 °F 68% 30.12 in 10.0 mi Calm Calm - N/A   Overcast
4:54 PM 27.0 °F - 18.1 °F 69% 30.12 in 10.0 mi Calm Calm - N/A   Overcast
5:15 PM 27.0 °F - 18.3 °F 70% 30.13 in 10.0 mi Calm Calm - N/A   Overcast
5:35 PM 27.0 °F - 18.5 °F 70% 30.13 in 10.0 mi Calm Calm - N/A Snow Light Snow
5:55 PM 27.0 °F - 18.9 °F 72% 30.13 in 10.0 mi Calm Calm - N/A   Overcast
6:15 PM 26.8 °F - 19.0 °F 73% 30.13 in 10.0 mi Calm Calm - N/A   Overcast
6:35 PM 27.0 °F - 19.4 °F 73% 30.13 in 10.0 mi Calm Calm - N/A   Overcast
6:55 PM 27.0 °F 23.0 °F 19.2 °F 73% 30.14 in 10.0 mi South 3.5 mph - N/A   Overcast
7:15 PM 27.0 °F 20.5 °F 19.4 °F 73% 30.15 in 10.0 mi South 5.8 mph - N/A   Overcast
7:35 PM 27.0 °F 21.6 °F 19.4 °F 73% 30.15 in 10.0 mi South 4.6 mph - N/A   Overcast
7:55 PM 27.0 °F 23.0 °F 19.9 °F 75% 30.15 in 10.0 mi South 3.5 mph - N/A   Overcast
8:34 PM 27.1 °F 21.8 °F 19.8 °F 74% 30.13 in 10.0 mi South 4.6 mph - N/A   Overcast
8:55 PM 27.1 °F 21.8 °F 19.6 °F 73% 30.13 in 10.0 mi South 4.6 mph - N/A   Overcast
9:15 PM 26.8 °F 20.2 °F 19.2 °F 73% 30.13 in 10.0 mi South 5.8 mph - N/A   Overcast
9:34 PM 26.6 °F 20.0 °F 19.0 °F 73% 30.12 in 10.0 mi SSW 5.8 mph - N/A   Overcast
9:55 PM 26.4 °F 18.0 °F 18.9 °F 73% 30.12 in 10.0 mi South 8.1 mph - N/A   Overcast
10:15 PM 26.2 °F 20.7 °F 18.7 °F 73% 30.12 in 10.0 mi SSW 4.6 mph - N/A   Overcast
10:35 PM 26.1 °F 18.4 °F 18.5 °F 73% 30.12 in 10.0 mi SSW 6.9 mph - N/A   Overcast
10:55 PM 26.1 °F 19.4 °F 18.5 °F 73% 30.12 in 10.0 mi SSW 5.8 mph - N/A   Overcast
11:15 PM 25.9 °F 18.2 °F 18.3 °F 73% 30.12 in 10.0 mi SSW 6.9 mph - N/A   Overcast
11:35 PM 25.7 °F 18.0 °F 18.1 °F 73% 30.12 in 10.0 mi SSW 6.9 mph - N/A   Overcast
11:55 PM 25.5 °F 16.9 °F 17.8 °F 72% 30.12 in 10.0 mi SSW 8.1 mph - N/A   Overcast